Find Starlink 30082

NORAD ID: 57509 Int'l Des: 2023-113 Owner: SPXS Country: US Constellation: starlink operational
LEOCIRCULAR

实时位置

正在加载3D地球...

关于 Starlink 30082

正在加载描述...

即将过境

Passes for default location (London). Set your location on the main map for personalized predictions.

高度历史

Loading altitude history...

两行轨道根数

1 57509U 23113Q 26130.00284826 .00000125 00000-0 14086-4 0 9999
2 57509 43.0017 29.6854 0001379 265.3150 94.7544 15.27568750153052
Epoch: May 10, 2026 • Age: 11 hours

当前状态

高度 486.3 km
速度 7.63 km/s
星下点 39.42°N, 49.74°E
发射日期 Aug 7, 2023
运行时间 2.7 years
类型 internet

技术详情

分类 Payload
质量 730.00 kg
干质量 700.00 kg
总质量 730.00 kg
长度 0.30 m
直径 4.10 m
跨度 29.00 m
形状 Box + pan
制造商 SPXS
平台类型 Starlink V2M
阶段状态 In Orbit
所有者/国家 SPXS/US

Most Searched